"Time","Temp","Dewpoint","Humidity","Pressure","Direction","Speed","Gust","Precip","PrecipRate"
"00:04:56","68.1","66.9","95.8","29.99","277","0.4","3","0.00","0.00"
"00:09:56","68","66.5","95","29.99","289","0.8","3.5","0.00","0.00"
"00:14:56","67.9","66.4","95","29.99","300","0.1","2.3","0.00","0.00"
"00:19:56","67.7","66.2","95","29.98","289","0.5","3.5","0.00","0.00"
"00:24:59","67.5","66","95","29.98","105","0.3","3","0.00","0.00"
"00:29:59","67.4","65.9","95","29.98","107","0.2","2.3","0.00","0.00"
"00:34:58","67.2","65.6","94.6","29.98","92","0.6","2.3","0.00","0.00"
"00:39:59","67.2","65.4","94","29.98","86","0.1","2.3","0.00","0.00"
"00:44:59","67.1","65.4","94.2","29.98","86","0.1","1.2","0.00","0.00"
"00:49:58","67.1","65.5","94.9","29.98","86","0","0","0.00","0.00"
"00:54:58","67","65.5","95","29.98","86","0","0","0.00","0.00"
"00:59:57","67","65.5","95","29.98","86","0","0","0.00","0.00"
"01:04:54","67","65.5","95","29.98","86","0","0","0.00","0.00"
"01:09:59","67","65.5","95.2","29.98","86","0","0","0.00","0.00"
"01:14:57","67","65.5","95","29.98","27","0.3","2.3","0.00","0.00"
"01:19:56","67","65.1","93.9","29.98","334","0.8","5","0.00","0.00"
"01:24:58","67.1","64.8","92.2","29.98","293","1.4","4.6","0.00","0.00"
"01:29:56","67.3","64.9","92","29.99","290","0.3","3.5","0.00","0.00"
"01:34:58","67.3","64.7","91.1","29.99","290","0.7","3.5","0.00","0.00"
"01:39:59","67.4","64.7","91.2","29.99","281","0.3","3","0.00","0.00"
"01:44:59","67.4","64.9","91.7","29.99","272","0.2","2.3","0.00","0.00"
"01:49:57","67.4","64.7","91.1","29.99","271","0.3","2.3","0.00","0.00"
"01:54:56","67.3","64.7","91.2","29.99","271","0","1.2","0.00","0.00"
"01:59:59","67.3","64.5","90.8","30.00","271","0.4","2.3","0.00","0.00"
"02:04:57","67.3","64.6","91.2","30.00","272","0.8","2.3","0.00","0.00"
"02:09:58","67.2","64.6","91.3","30.00","246","0.6","2.3","0.00","0.00"
"02:14:57","67.1","64","89.8","30.00","239","0.5","3","0.00","0.00"
"02:19:56","67.1","63.8","89.2","30.00","245","0.7","4","0.00","0.00"
"02:24:59","67.3","63.7","88.4","30.00","292","1.3","3.5","0.00","0.00"
"02:29:58","67.5","63.6","87.3","30.00","276","1.1","5","0.00","0.00"
"02:34:57","67.7","63.7","87","30.00","266","0.8","3","0.00","0.00"
"02:39:58","67.9","63.6","86.1","30.00","276","0.8","3.5","0.00","0.00"
"02:44:58","68.2","63.5","85","30.00","329","0.7","3.5","0.00","0.00"
"02:49:56","68.3","63.8","85.6","30.00","333","0.2","1.2","0.00","0.00"
"02:54:58","68.3","63.7","85.2","30.00","239","1.6","5","0.00","0.00"
"02:59:58","68.3","63.9","86","30.00","238","0.5","3.5","0.00","0.00"
"03:04:56","68.2","64.2","86.9","30.00","238","0.3","2.3","0.00","0.00"
"03:09:57","68.1","64.3","87.6","30.00","237","0.4","2.3","0.00","0.00"
"03:14:56","67.9","64.2","88","30.00","238","0.1","1.2","0.00","0.00"
"03:19:59","67.7","64.1","88.3","29.99","240","0.3","2.3","0.00","0.00"
"03:24:58","67.6","63.6","87.2","29.99","241","0.4","2.3","0.00","0.00"
"03:29:57","67.5","63.6","87.2","30.00","241","0.3","2.3","0.00","0.00"
"03:34:56","67.5","63.8","87.9","30.00","256","1","4","0.00","0.00"
"03:39:57","67.5","63.6","87.2","30.00","221","0.4","3.5","0.00","0.00"
"03:44:56","67.6","63.5","86.7","30.00","221","0","1.2","0.00","0.00"
"03:49:59","67.7","63","84.9","30.00","326","1.4","7","0.00","0.00"
"03:54:58","68.1","63.2","84.1","30.00","279","0.5","3.5","0.00","0.00"
"03:59:57","68.3","63.4","84.3","30.00","268","0.7","3.5","0.00","0.00"
"04:04:57","68.4","63.7","85.3","30.00","267","0.3","2.3","0.00","0.00"
"04:09:58","68.2","63.7","85.3","30.00","305","0.6","3.5","0.00","0.00"
"04:14:56","68.1","63.4","85","30.00","238","0.6","4","0.00","0.00"
"04:19:58","68","63.2","84.6","30.00","221","0.3","2","0.00","0.00"
"04:24:56","68","63","84","30.00","221","0.1","2","0.00","0.00"
"04:29:58","67.9","63","84.3","30.00","221","0","0","0.00","0.00"
"04:34:58","67.7","62.8","84.3","30.00","221","0","0","0.00","0.00"
"04:39:57","67.4","62.7","84.9","30.00","230","0.8","3.5","0.00","0.00"
"04:44:59","67.1","62.4","85","30.00","231","0","0","0.00","0.00"
"04:49:55","66.8","62.7","86.7","30.00","231","0","0","0.00","0.00"
"04:54:57","66.3","62.6","88","30.00","231","0","1.2","0.00","0.00"
"04:59:59","65.7","62.5","89.3","30.00","231","0.6","1.2","0.00","0.00"
"05:04:59","65.2","62.2","90.1","30.00","231","0.2","1.2","0.00","0.00"
"05:09:59","64.7","62","91","30.00","231","0","1.2","0.00","0.00"
"05:14:55","64.3","61.6","91","30.00","231","0.2","1.2","0.00","0.00"
"05:19:56","64.1","61.7","92","30.00","231","0","1.2","0.00","0.00"
"05:24:58","63.9","61.5","92","30.00","231","0.2","2","0.00","0.00"
"05:29:56","63.8","61.4","92","30.01","231","0.5","2.3","0.00","0.00"
"05:34:57","63.6","61.2","92","30.01","231","0.6","2.3","0.00","0.00"
"05:39:57","63.3","61.2","92.9","30.01","232","0.1","2.3","0.00","0.00"
"05:44:59","63.2","61.1","93","30.01","234","0","0","0.00","0.00"
"05:49:57","63","60.9","93","30.01","234","0","0","0.00","0.00"
"05:54:59","62.8","60.5","92.2","30.01","234","0","0","0.00","0.00"
"05:59:57","62.6","60.5","93","30.01","234","0","0","0.00","0.00"
"06:04:54","62.4","60.3","93","30.01","234","0","0","0.00","0.00"
"06:09:59","62.4","60.6","93.9","30.01","139","0.9","5","0.00","0.00"
"06:14:56","62.8","61","94","30.03","277","1.3","3.5","0.00","0.00"
"06:19:58","63","61.1","93.8","30.03","279","0.1","3.5","0.00","0.00"
"06:24:56","63","60.9","93","30.03","279","0.3","2","0.00","0.00"
"06:29:57","63","61.1","93.5","30.03","279","0","0","0.00","0.00"
"06:34:59","63","61.2","94","30.02","279","0","0","0.00","0.00"
"06:39:58","63","61.2","94","30.02","279","0","0","0.00","0.00"
"06:44:57","63","61.2","94","30.03","279","0","0","0.00","0.00"
"06:49:58","63.1","61.6","94.9","30.03","279","0","0","0.00","0.00"
"06:54:59","63.2","61.7","95","30.03","279","0","0","0.00","0.00"
"06:59:56","63.4","61.9","95","30.03","279","0","0","0.00","0.00"
"07:04:57","63.6","62.1","95","30.03","279","0","0","0.00","0.00"
"07:09:58","63.9","62.4","95","30.03","279","0","0","0.00","0.00"
"07:14:56","64.2","62.7","95","30.04","279","0","0","0.00","0.00"
"07:19:56","64.5","62.8","94.4","30.04","279","0","0","0.00","0.00"
"07:24:57","64.9","63.4","95","30.04","279","0","0","0.00","0.00"
"07:29:59","65.4","63.9","94.9","30.04","279","0","0","0.00","0.00"
"07:34:56","66","64.2","94","30.04","279","0","0","0.00","0.00"
"07:39:56","66.6","64.8","94","30.04","279","0","0","0.00","0.00"
"07:44:56","67.1","65.3","93.9","30.04","279","0","0","0.00","0.00"
"07:49:57","67.9","65.2","91.2","30.04","279","0","0","0.00","0.00"
"07:54:59","68.6","64.7","87.5","30.04","271","0","0","0.00","0.00"
"07:59:57","69.1","64.6","85.6","30.04","231","0","0","0.00","0.00"
"08:04:57","69.7","64.3","83.2","30.04","227","0","0","0.00","0.00"
"08:09:58","70.2","64.6","82.7","30.04","344","0","2","0.00","0.00"
"08:14:58","70.8","64.4","80.3","30.04","343","0.4","2.3","0.00","0.00"
"08:19:58","71.3","64.7","79.6","30.04","245","1.1","3.5","0.00","0.00"
"08:24:57","71.8","64.7","78.5","30.04","283","1","4","0.00","0.00"
"08:29:58","72.2","65.1","78.5","30.05","276","0.9","3","0.00","0.00"
"08:34:59","72.4","64.4","75.9","30.05","311","2.3","6","0.00","0.00"
"08:39:58","72.6","64.4","75.6","30.05","331","1.6","4","0.00","0.00"
"08:44:57","72.9","65.2","76.9","30.05","207","0.1","2.3","0.00","0.00"
"08:49:58","73.1","64.6","74.7","30.05","260","0.1","2","0.00","0.00"
"08:54:59","73.3","64.9","75.2","30.05","266","0.1","3","0.00","0.00"
"08:59:57","73.5","65","74.7","30.06","325","0.1","1.2","0.00","0.00"
"09:04:56","73.8","65.7","75.7","30.06","223","0","0","0.00","0.00"
"09:09:57","74.2","65.6","74.6","30.06","287","0","1","0.00","0.00"
"09:14:58","74.4","65.3","73.3","30.06","308","1.4","6","0.00","0.00"
"09:19:58","74.5","64.9","71.8","30.06","264","2.6","9.2","0.00","0.00"
"09:24:56","74.7","64.5","70.4","30.06","304","3.1","11","0.00","0.00"
"09:29:58","74.8","65.1","71.7","30.06","315","2.6","11.5","0.00","0.00"
"09:34:59","75.1","65.5","72.1","30.06","287","2.5","7","0.00","0.00"
"09:39:58","75.3","65","70.6","30.06","293","2.3","8","0.00","0.00"
"09:44:59","75.4","64.8","69.9","30.06","316","3.4","10","0.00","0.00"
"09:49:56","75.4","64.4","68.7","30.06","320","3.8","10.4","0.00","0.00"
"09:54:58","75.5","64.7","69.2","30.06","299","2.3","8.1","0.00","0.00"
"09:59:59","75.7","64.4","68.1","30.06","294","2.8","7","0.00","0.00"
"10:04:58","75.7","64.3","67.7","30.06","331","3.8","7","0.00","0.00"
"10:09:58","75.8","64.6","68.3","30.06","292","3.2","6","0.00","0.00"
"10:14:59","76.1","65.2","69","30.06","307","2.1","5.8","0.00","0.00"
"10:19:57","76.3","64.8","67.5","30.06","330","2.4","6","0.00","0.00"
"10:24:57","76.4","65.2","68.4","30.06","250","1","5","0.00","0.00"
"10:29:57","76.8","64.4","65.7","30.06","331","3.1","11.5","0.00","0.00"
"10:34:59","77.1","64.4","65.1","30.06","312","3.2","11","0.00","0.00"
"10:39:58","77.3","64.6","64.9","30.06","315","3.2","12","0.00","0.00"
"10:44:56","77.4","64.9","65.4","30.06","335","3.2","10.4","0.00","0.00"
"10:49:58","77.7","64.6","64.1","30.06","329","2.8","7","0.00","0.00"
"10:54:58","77.5","64.9","65.1","30.06","281","2.3","7","0.00","0.00"
"10:59:59","77.3","64.7","65.1","30.06","280","3.5","10.4","0.00","0.00"
"11:04:56","77.6","64.8","64.9","30.06","300","2.8","5.8","0.00","0.00"
"11:09:56","77.9","64.8","64.3","30.06","298","1.9","5","0.00","0.00"
"11:14:57","78.1","65.1","64.3","30.06","280","2.8","7","0.00","0.00"
"11:19:58","78.2","64.5","62.7","30.06","271","2.7","9.2","0.00","0.00"
"11:24:56","78.2","63.8","61.4","30.06","288","2.7","7","0.00","0.00"
"11:29:58","78.3","64.2","62.1","30.06","338","2.6","6","0.00","0.00"
"11:34:56","78.5","62.5","58","30.06","309","3.2","13","0.00","0.00"
"11:39:56","78.7","63","58.7","30.06","320","3","9.2","0.00","0.00"
"11:44:57","78.8","62.9","58.2","30.06","285","2.7","8.1","0.00","0.00"
"11:49:58","79.3","63.7","59.1","30.06","336","2.5","10","0.00","0.00"
"11:54:59","79.6","63.5","57.8","30.06","270","2.4","8.1","0.00","0.00"
"11:59:56","80","64","58.3","30.06","335","3","7","0.00","0.00"
"12:04:55","80.2","64.4","58.7","30.06","319","2.4","9","0.00","0.00"
"12:09:59","80.1","64.5","59","30.06","264","3.3","9.2","0.00","0.00"
"12:14:58","80.2","64.3","58.4","30.06","288","3.4","11.5","0.00","0.00"
"12:19:58","80.1","63.5","57","30.06","350","3.4","10.4","0.00","0.00"
"12:24:59","79.9","63.2","56.8","30.06","339","2.6","6","0.00","0.00"
"12:29:59","79.7","64.5","59.8","30.06","311","1.9","5","0.00","0.00"
"12:34:56","79.7","63.4","57.6","30.06","336","3.3","7","0.00","0.00"
"12:39:55","79.5","64","59.3","30.06","261","2.5","11.5","0.00","0.00"
"12:44:58","79.6","64.3","59.7","30.06","269","1.8","5","0.00","0.00"
"12:49:59","80","64.2","58.6","30.05","306","2.9","7","0.00","0.00"
"12:54:55","80.2","64.3","58.4","30.05","326","2.5","6.9","0.00","0.00"
"12:59:57","80.4","65.1","59.8","30.05","325","1.1","3.5","0.00","0.00"
"13:04:58","80.6","63.5","56.2","30.04","298","1.9","5","0.00","0.00"
"13:09:58","81","64.3","57","30.04","300","2.5","6","0.00","0.00"
"13:14:59","81.3","61.4","51","30.04","332","2.9","9.2","0.00","0.00"
"13:19:59","81.3","62.8","53.4","30.03","231","3.4","7","0.00","0.00"
"13:24:56","81.5","62.4","52.6","30.03","264","2.8","9.2","0.00","0.00"
"13:29:57","81.5","60.9","49.7","30.03","337","2.9","9.2","0.00","0.00"
"13:34:57","81.8","62.5","52.1","30.03","207","1.8","5","0.00","0.00"
"13:39:57","82","60.4","48.1","30.03","294","2.2","7","0.00","0.00"
"13:44:58","82.2","62.1","50.8","30.03","279","3.2","10.4","0.00","0.00"
"13:49:56","82.1","59.9","47.1","30.03","287","3.4","10.4","0.00","0.00"
"13:54:58","81.8","61.3","49.9","30.03","263","2.3","5","0.00","0.00"
"13:59:59","82.2","62.5","51.5","30.03","259","3","7","0.00","0.00"
"14:04:56","82.5","62.7","51.4","30.02","287","2.3","7","0.00","0.00"
"14:09:56","82.4","59.4","45.7","30.02","289","3.3","9.2","0.00","0.00"
"14:14:56","82.3","59.7","46.5","30.02","326","4","11.5","0.00","0.00"
"14:19:57","82.3","59.6","46.3","30.01","281","2.1","6.9","0.00","0.00"
"14:24:58","82.4","60.3","47.4","30.01","341","2","6","0.00","0.00"
"14:29:58","82.3","60.6","47.9","30.01","315","3.2","11","0.00","0.00"
"14:34:59","82.3","59.9","46.7","30.01","319","3.9","9.2","0.00","0.00"
"14:39:58","82.6","61.1","48.4","30.01","261","2.3","6","0.00","0.00"
"14:44:59","82.9","62.7","50.5","30.01","209","2.2","5","0.00","0.00"
"14:49:56","83.1","60.8","47.1","30.00","224","2.8","6","0.00","0.00"
"14:54:57","83","61.4","48.2","30.00","202","2.1","6","0.00","0.00"
"14:59:57","83.1","60.9","47.2","30.00","328","2.6","7","0.00","0.00"
"15:04:57","83.4","61.8","48.4","30.00","267","3","6","0.00","0.00"
"15:09:57","83.5","61.5","47.7","30.00","239","3.2","8.1","0.00","0.00"
"15:14:59","83.4","61.6","48","30.00","303","2.9","8.1","0.00","0.00"
"15:19:59","83.4","61.2","47.2","30.00","325","3.4","8.1","0.00","0.00"
"15:24:59","83.5","62","48.5","30.00","288","2.4","5","0.00","0.00"
"15:29:59","83.7","60.7","46","30.00","229","2.5","5","0.00","0.00"
"15:34:59","83.2","60.2","45.9","30.00","258","2.2","4","0.00","0.00"
"15:39:59","83.2","61.1","47.5","30.00","266","2.3","8","0.00","0.00"
"15:44:55","83.6","61.7","47.8","30.00","192","2.3","8.1","0.00","0.00"
"15:49:56","83.9","61","46.1","29.99","220","2.6","8.1","0.00","0.00"
"15:54:57","84.3","62.1","47.4","29.99","309","3","11.5","0.00","0.00"
"15:59:58","84.3","61","45.6","29.99","283","2","6.9","0.00","0.00"
"16:04:58","84","62","47.6","29.98","19","1.6","4","0.00","0.00"
"16:09:58","84","62.3","48","29.98","289","2.5","6","0.00","0.00"
"16:14:57","84.3","61.3","45.9","29.98","286","2.5","6","0.00","0.00"
"16:19:58","84.6","62.4","47.5","29.98","305","2","5","0.00","0.00"
"16:24:59","84.9","62.6","47.4","29.98","329","2.4","7","0.00","0.00"
"16:29:59","85.2","61.7","45.4","29.98","267","2","5","0.00","0.00"
"16:34:59","85","59.9","42.8","29.97","334","2.8","7","0.00","0.00"
"16:39:57","84.9","60.5","43.9","29.97","332","2.4","6.9","0.00","0.00"
"16:44:58","84.9","60","43.2","29.97","292","2.6","6","0.00","0.00"
"16:49:58","85","61.3","45","29.97","357","1.8","5","0.00","0.00"
"16:54:58","85.3","60.7","43.7","29.97","358","1.7","4","0.00","0.00"
"16:59:58","85.3","60.9","43.9","29.97","289","1.2","5","0.00","0.00"
"17:04:59","85.2","61.4","44.8","29.97","314","1.3","4","0.00","0.00"
"17:09:59","85.1","59.2","41.6","29.97","321","2.5","5","0.00","0.00"
"17:14:59","85.2","59.9","42.6","29.97","325","1.7","5","0.00","0.00"
"17:19:56","85.3","60.3","43.1","29.96","306","0.8","2.3","0.00","0.00"
"17:24:56","85.1","60.9","44.2","29.96","299","1.4","3.5","0.00","0.00"
"17:29:57","84.9","60.7","44.3","29.97","340","1.4","4","0.00","0.00"
"17:34:58","85","59.4","42.1","29.97","337","1.2","4","0.00","0.00"
"17:39:59","85","60","43.1","29.97","330","1.6","4","0.00","0.00"
"17:44:59","85","60","43","29.97","321","1.6","6","0.00","0.00"
"17:49:59","85.1","60.6","43.9","29.96","338","1.6","4","0.00","0.00"
"17:54:55","85.2","60.5","43.5","29.96","344","1.9","5","0.00","0.00"
"17:59:56","85","60.1","43.1","29.96","339","1.9","5","0.00","0.00"
"18:04:56","84.8","60.3","43.8","29.96","339","2","5","0.00","0.00"
"18:09:57","84.4","59.3","42.8","29.96","326","2.2","5","0.00","0.00"
"18:14:58","83.8","58.1","41.8","29.96","296","2.4","4","0.00","0.00"
"18:19:59","83.3","58.7","43.4","29.96","316","1.5","3.5","0.00","0.00"
"18:24:59","82.9","59.6","45.2","29.96","330","1.9","5","0.00","0.00"
"18:29:59","82.6","60.3","46.9","29.96","340","1.6","4","0.00","0.00"
"18:34:59","82.3","59.4","45.8","29.95","339","1.3","3.5","0.00","0.00"
"18:39:58","82","59.6","46.7","29.95","339","0.9","3.5","0.00","0.00"
"18:44:55","81.8","59.7","47.2","29.95","339","0.9","2.3","0.00","0.00"
"18:49:59","81.6","60.5","48.8","29.95","339","0.6","2.3","0.00","0.00"
"18:54:59","81.5","61.6","50.9","29.95","339","0.8","3","0.00","0.00"
"18:59:57","81.3","60.9","50","29.95","339","0","0","0.00","0.00"
"19:04:57","81","60","49","29.95","339","0.4","2.3","0.00","0.00"
"19:09:59","80.7","61.2","51.5","29.95","338","0","1.2","0.00","0.00"
"19:14:59","80.3","62.1","54","29.95","338","0.1","1.2","0.00","0.00"
"19:19:56","79.7","62.5","55.9","29.95","338","0.2","2","0.00","0.00"
"19:24:57","79.1","61.7","55.5","29.95","338","0.7","2.3","0.00","0.00"
"19:29:59","78.6","60.9","54.6","29.96","338","0.7","2.3","0.00","0.00"
"19:34:57","78.3","62","57.4","29.96","338","0.2","2.3","0.00","0.00"
"19:39:57","78","63.6","61.2","29.96","338","0","1.2","0.00","0.00"
"19:44:59","77.6","63.2","61.3","29.96","338","0.1","1.2","0.00","0.00"
"19:49:57","77.1","63.2","62.3","29.96","338","0.3","1.2","0.00","0.00"
"19:54:59","76.5","63.1","63.3","29.96","338","0.3","1.2","0.00","0.00"
"19:59:56","75.9","62.8","63.9","29.96","338","0","1","0.00","0.00"
"20:04:57","75.4","63.2","66","29.96","338","0","1.2","0.00","0.00"
"20:09:58","75","63.6","67.8","29.96","338","0","0","0.00","0.00"
"20:14:56","74.5","64.1","70","29.97","338","0","0","0.00","0.00"
"20:19:59","74","63.9","70.7","29.97","338","0","1","0.00","0.00"
"20:24:57","73.6","63.4","70.5","29.97","338","0","1.2","0.00","0.00"
"20:29:57","73.2","63.6","72.1","29.97","338","0","0","0.00","0.00"
"20:34:57","72.8","64.3","74.6","29.97","338","0","0","0.00","0.00"
"20:39:59","72.5","64.9","77.1","29.97","338","0","0","0.00","0.00"
"20:44:58","72.1","65","78.4","29.97","338","0.2","2","0.00","0.00"
"20:49:59","71.9","64.7","78","29.97","338","1.1","2.3","0.00","0.00"
"20:54:56","71.8","64.6","78","29.97","338","0.8","2.3","0.00","0.00"
"20:59:59","71.5","64.3","78","29.97","338","1","2.3","0.00","0.00"
"21:04:55","71.2","64.3","78.9","29.97","338","1.1","2.3","0.00","0.00"
"21:09:56","70.9","64.1","79","29.97","338","0.8","2.3","0.00","0.00"
"21:14:57","70.6","64","79.7","29.98","338","0.3","1.2","0.00","0.00"
"21:19:57","70.4","64.1","80.5","29.98","338","0","0","0.00","0.00"
"21:24:59","70","63.9","81","29.98","338","0","1.2","0.00","0.00"
"21:29:57","69.6","63.5","81","29.99","338","0.1","1.2","0.00","0.00"
"21:34:58","69.4","63.3","81","29.99","338","0","0","0.00","0.00"
"21:39:57","69.2","63.3","81.5","29.99","338","0","1.2","0.00","0.00"
"21:44:59","69","63.3","82","29.99","338","0","0","0.00","0.00"
"21:49:59","68.7","63","82","29.99","338","0","0","0.00","0.00"
"21:54:56","68.6","62.9","82","29.99","338","0","0","0.00","0.00"
"21:59:58","68.4","62.9","82.7","30.00","338","0.1","1.2","0.00","0.00"
"22:04:58","68.2","63.2","84","30.00","338","0.1","1.2","0.00","0.00"
"22:09:59","68.1","63.1","84","30.00","338","0.2","1.2","0.00","0.00"
"22:14:59","67.9","63.1","84.8","30.01","338","0","1.2","0.00","0.00"
"22:19:57","67.7","62.9","84.6","30.01","338","0","1.2","0.00","0.00"
"22:24:58","67.4","62.5","84.3","30.01","338","0.1","1.2","0.00","0.00"
"22:29:56","67.3","62.6","85","30.01","338","0","1.2","0.00","0.00"
"22:34:58","67.1","62.4","85","30.01","338","0","0","0.00","0.00"
"22:39:58","67","62.3","85","30.01","338","0","0","0.00","0.00"
"22:44:57","66.9","62.2","84.7","30.01","338","0.1","2","0.00","0.00"
"22:49:59","67","62","83.9","30.01","338","0.9","3","0.00","0.00"
"22:54:56","67.1","60.9","80.3","30.01","337","0.8","3.5","0.00","0.00"
"22:59:58","67.6","60","76.8","30.01","337","1.2","5","0.00","0.00"
"23:04:59","68.1","59.2","73.2","30.01","324","2.2","5","0.00","0.00"
"23:09:56","68.7","59.1","71.5","30.01","325","1.3","3.5","0.00","0.00"
"23:14:56","69.1","58.6","69.4","30.01","332","0.8","3.5","0.00","0.00"
"23:19:56","69.2","57.7","66.6","30.01","332","0","1.2","0.00","0.00"
"23:24:57","69.4","57.1","65","30.01","331","0.9","4","0.00","0.00"
"23:29:59","69.5","57.6","66","30.01","331","0.5","3","0.00","0.00"
"23:34:56","69.4","58.2","67.4","30.00","331","0.3","1.2","0.00","0.00"
"23:39:59","69.1","58.1","67.9","30.00","331","0","1.2","0.00","0.00"
"23:44:58","68.9","57.7","67.7","30.01","331","0.1","1.2","0.00","0.00"
"23:49:59","68.8","57.4","67","30.01","331","0","1.2","0.00","0.00"
"23:54:56","68.7","57.9","68.6","30.01","331","0.2","1.2","0.00","0.00"
"23:59:58","68.4","58.8","71.5","30.01","331","0.4","1.2","0.00","0.00"
